This demonstration page uses our WeatherBlox Daily Observations layout. Learn more.

Left ArrowRight Arrow

Hourly Observations for February 4, 2015

Temp ( °F °C ) Dew Point ( °F °C ) Humidity (%) Winds ( mph kmh ) Pressure ( in mb ) Visibility ( mi km ) Precip ( " mm )
12:01 am 00:01 Mostly Cloudy with Fog 42 5.6 39 3.9 89 89 ESE 9 15 30.06 1018 1 1 0.00 0.00
12:17 am 00:17 Mostly Cloudy with Fog 42 5.6 39 3.9 89 89 SE 12 19 30.06 1018 0 0 0.00 0.00
12:53 am 00:53 Mostly Cloudy with Fog 41 5 39 3.9 93 93 SE 8 13 29.97 1015 0 0 0.00 0.00
1:53 am 01:53 Mostly Cloudy with Fog 41 5 39 3.9 93 93 SE 6 9 29.97 1015 0 0 0.00 0.00
2:53 am 02:53 Mostly Cloudy with Fog 41 5 38 3.3 89 89 SE 6 9 29.95 1014 0 0 0.00 0.00
3:53 am 03:53 Mostly Cloudy with Fog 41 5 38 3.3 89 89 Calm 29.94 1014 0 0 0.00 0.00
4:53 am 04:53 Mostly Cloudy with Fog 39 3.9 36 2.2 89 89 E 3 6 29.94 1014 0 0 0.00 0.00
5:53 am 05:53 Mostly Cloudy with Fog 39 3.9 36 2.2 89 89 ESE 3 6 29.94 1014 0 0 0.00 0.00
6:53 am 06:53 Mostly Cloudy with Fog 38 3.3 35 1.7 89 89 Calm 29.96 1015 0 0 0.00 0.00
7:09 am 07:09 Mostly Cloudy with Fog 37 2.8 34 1.1 89 89 E 3 6 30.06 1018 1 1 0.00 0.00
7:18 am 07:18 Mostly Cloudy with Fog 37 3 34 1 87 87 Calm 30.06 1018 0 0 0.00 0.00
7:53 am 07:53 Mostly Cloudy with Fog 37 2.8 34 1.1 89 89 ESE 3 6 29.97 1015 0 0 0.00 0.00
8:53 am 08:53 Mostly Cloudy with Fog 38 3.3 35 1.7 89 89 SSE 5 7 29.98 1015 0 0 0.00 0.00
9:53 am 09:53 Mostly Cloudy with Fog 40 4.4 37 2.8 89 89 N 6 9 30.01 1016 1 1 0.00 0.00
10:03 am 10:03 Mostly Cloudy with Fog 39 4 37 3 93 93 Calm 30.09 1019 0 0 0.00 0.00
10:10 am 10:10 Cloudy with Mist and Fog 41 5 39 4 93 93 Calm 30.09 1019 1 1 0.00 0.00
10:23 am 10:23 Cloudy with Mist and Fog 42 5.6 39 3.9 89 89 S 5 7 30.06 1018 2 3 0.00 0.00
10:31 am 10:31 Mostly Cloudy 42 5.6 39 3.9 89 89 Calm 30.06 1018 10 16 0.00 0.00
10:45 am 10:45 Partly Cloudy 44 6.7 41 5 89 89 SSE 3 6 30.06 1018 10 16 0.00 0.00
10:53 am 10:53 Mostly Sunny 45 7.2 41 5 86 86 SSW 5 7 30.00 1016 10 16 0.00 0.00
11:53 am 11:53 Sunny 60 15.6 40 4.4 47 47 WSW 9 15 29.96 1015 10 16 0.00 0.00
12:53 pm 12:53 Sunny 67 19.4 40 4.4 37 37 W 8 13 29.93 1013 10 16 0.00 0.00
1:53 pm 13:53 Sunny 72 22.2 36 2.2 27 27 NW 12 19 29.90 1013 10 16 0.00 0.00
2:53 pm 14:53 Sunny 75 23.9 32 0 21 21 NW 9 15 29.88 1012 10 16 0.00 0.00
3:53 pm 15:53 Sunny 76 24.4 30 -1.1 18 18 NW 7 11 29.87 1012 10 16 0.00 0.00
4:53 pm 16:53 Sunny 77 25 27 -2.8 16 16 NW 13 20 29.88 1012 10 16 0.00 0.00
5:53 pm 17:53 Sunny 75 23.9 28 -2.2 18 18 N 9 15 29.91 1013 10 16 0.00 0.00
6:08 pm 18:08 Hazy 61 16 34 1 36 36 NNE 31 50 29.97 1015 4 6 0.00 0.00
6:16 pm 18:16 Mostly Cloudy with Haze 57 14 34 1 41 41 NE 31 50 29.97 1015 4 6 0.00 0.00
6:53 pm 18:53 Cloudy with Haze 49 9.4 30 -1.1 48 48 NNE 30 48 30.06 1018 6 10 0.00 0.00
7:53 pm 19:53 Cloudy 42 5.6 28 -2.2 58 58 NNE 25 41 30.16 1021 9 14 0.00 0.00
8:27 pm 20:27 Partly Cloudy 40 4.4 29 -1.7 65 65 NE 25 41 30.27 1025 10 16 0.00 0.00
8:48 pm 20:48 Mostly Cloudy 39 4 30 -1 70 70 NE 26 43 30.27 1025 10 16 0.00 0.00
8:53 pm 20:53 Mostly Cloudy 39 3.9 29 -1.7 67 67 NNE 26 43 30.22 1023 10 16 0.00 0.00
9:36 pm 21:36 Cloudy 38 3.3 29 -1.7 70 70 NNE 25 41 30.33 1027 10 16 0.00 0.00
9:53 pm 21:53 Cloudy 38 3.3 29 -1.7 70 70 NNE 25 41 30.32 1027 10 16 0.00 0.00
10:03 pm 22:03 Cloudy 37 3 28 -2 70 70 N 18 30 30.39 1029 10 16 0.00 0.00
10:13 pm 22:13 Cloudy 38 3.3 29 -1.7 70 70 N 17 28 30.39 1029 10 16 0.00 0.00
10:53 pm 22:53 Cloudy 37 2.8 28 -2.2 70 70 N 20 31 30.36 1028 10 16 0.00 0.00
11:16 pm 23:16 Cloudy 36 2 28 -2 75 75 N 18 30 30.48 1032 10 16 0.00 0.00
11:53 pm 23:53 Cloudy 36 2.2 28 -2.2 73 73 N 14 22 30.36 1028 10 16 0.00 0.00

Powered by AerisWeather